"2010-08-04 00:00:00",40621,2.547,294,1.447,0.092,21.83,109.4922,23.59,24.43,35.96,0,111,13.16,24.42,256.0
"2010-08-04 00:00:30",40622,2.413,289.4,2.119,0.103,21.87,109.4937,23.59,24.44,35.96,0,111,13.16,24.43,251.4
"2010-08-04 00:01:00",40623,2.263,287.3,2.069,0.128,21.89,109.4963,23.6,24.46,35.95,0,111,13.16,24.43,249.3
"2010-08-04 00:01:30",40624,2.147,285.4,1.468,0.062,21.94,109.5135,23.64,24.46,35.74,0,111,13.16,24.48,247.4
"2010-08-04 00:02:00",40625,2.091,279.2,3.623,0.064,22.02,109.5296,23.69,24.48,35.41,0,111,13.16,24.52,241.2
"2010-08-04 00:02:30",40626,2.013,274,1.247,0.073,22.05,109.5359,23.7,24.51,34.82,0,111,13.16,24.54,236.0
"2010-08-04 00:03:00",40627,1.957,273.9,1.377,0.066,22.08,109.5635,23.77,24.55,34.4,0,111,13.16,24.61,235.9
"2010-08-04 00:03:30",40628,1.864,275,1.24,0.058,22.05,109.5738,23.8,24.57,34.21,0,111,13.15,24.63,237.0
"2010-08-04 00:04:00",40629,1.904,274.4,1.71,0.054,22.07,109.5984,23.86,24.62,33.9,0,111,13.15,24.70,236.4
"2010-08-04 00:04:30",40630,2.141,273.6,1.085,0.078,22.08,109.6007,23.87,24.64,33.5,0,111,13.16,24.70,235.6
"2010-08-04 00:05:00",40631,2.2,275.5,0.773,0.043,22.01,109.6076,23.89,24.66,33.59,0,111,13.16,24.72,237.5
"2010-08-04 00:05:30",40632,2.206,275.7,1.184,0.041,22.03,109.615,23.91,24.68,33.54,0,111,13.16,24.74,237.7
"2010-08-04 00:06:00",40633,2.136,276.2,0.964,0.076,22.07,109.6292,23.94,24.7,33.36,0,111,13.16,24.78,238.2
"2010-08-04 00:06:30",40634,2.016,277.3,0.592,0.027,22.09,109.6348,23.96,24.72,33.05,0,111,13.16,24.79,239.3
"2010-08-04 00:07:00",40635,2.059,275.8,1.643,0.105,22.1,109.6345,23.96,24.75,33.1,0,111,13.16,24.79,237.8
"2010-08-04 00:07:30",40636,2.034,272.9,1.85,0.08,22.08,109.637,23.96,24.76,32.91,0,111,13.16,24.80,234.9
"2010-08-04 00:08:00",40637,1.996,271.5,2.14,0.071,22.09,109.6527,24,24.78,32.71,0,111,13.16,24.84,233.5
"2010-08-04 00:08:30",40638,2.139,275.8,2.608,0.122,22.06,109.6588,24.02,24.79,32.71,0,111,13.16,24.85,237.8
"2010-08-04 00:09:00",40639,2.121,273.4,2.046,0.16,22.04,109.6664,24.04,24.81,32.7,0,111,13.16,24.87,235.4
"2010-08-04 00:09:30",40640,2.151,272,1.888,0.118,22.05,109.6688,24.04,24.82,32.72,0,111,13.16,24.88,234.0
"2010-08-04 00:10:00",40641,1.91,273.6,2.081,0.05,22.07,109.6682,24.04,24.84,32.73,0,111,13.16,24.88,235.6
"2010-08-04 00:10:30",40642,1.917,273.2,1.777,0.107,22.07,109.666,24.04,24.83,32.67,0,111,13.16,24.87,235.2
"2010-08-04 00:11:00",40643,1.993,270.2,0.974,0.063,22.06,109.6663,24.04,24.86,32.4,0,111,13.16,24.87,232.2
"2010-08-04 00:11:30",40644,1.974,272.4,1.822,0.066,22.1,109.672,24.05,24.87,32.48,0,111,13.16,24.89,234.4
"2010-08-04 00:12:00",40645,1.998,271.6,1.498,0.079,22.1,109.6754,24.06,24.88,32.42,0,111,13.16,24.90,233.6
"2010-08-04 00:12:30",40646,2.239,270.6,0.543,0.052,22.04,109.6786,24.07,24.89,32.07,0,111,13.16,24.90,232.6
"2010-08-04 00:13:00",40647,2.266,268.4,1.462,0.067,22.03,109.6922,24.1,24.9,31.97,0,111,13.16,24.94,230.4
"2010-08-04 00:13:30",40648,2.189,266,2.246,0.101,22.05,109.6994,24.12,24.92,31.89,0,111,13.16,24.96,228.0
"2010-08-04 00:14:00",40649,2.071,271.8,3.291,0.128,22.07,109.6985,24.12,24.91,31.93,0,111,13.16,24.96,233.8
"2010-08-04 00:14:30",40650,1.987,273.3,2.031,0.106,22.08,109.7001,24.12,24.93,31.89,0,111,13.16,24.96,235.3
"2010-08-04 00:15:00",40651,2.074,269.9,2.464,0.113,22.04,109.697,24.12,24.94,31.99,0,111,13.16,24.95,231.9
"2010-08-04 00:15:30",40652,2.057,263.2,1.711,0.076,22.04,109.6994,24.12,24.96,31.68,0,111,13.16,24.96,225.2
"2010-08-04 00:16:00",40653,2.094,263.4,0.993,0.074,21.97,109.6993,24.12,24.96,31.51,0,111,13.16,24.96,225.4
"2010-08-04 00:16:30",40654,2.079,263.7,1.891,0.133,21.87,109.702,24.13,24.97,31.56,0,111,13.16,24.97,225.7
"2010-08-04 00:17:00",40655,2.169,266.7,1.216,0.087,21.83,109.7027,24.13,24.98,31.7,0,111,13.16,24.97,228.7
"2010-08-04 00:17:30",40656,2.091,268.9,1.826,0.16,21.85,109.7059,24.14,24.98,31.6,0,111,13.16,24.98,230.9
"2010-08-04 00:18:00",40657,1.912,266.7,2.523,0.073,21.88,109.7085,24.15,24.99,31.68,0,111,13.16,24.98,228.7
"2010-08-04 00:18:30",40658,1.838,267.1,1.26,0.053,21.87,109.7104,24.15,24.99,31.66,0,111,13.16,24.99,229.1
"2010-08-04 00:19:00",40659,1.767,265.7,1.497,0.091,21.91,109.7168,24.17,25.01,31.57,0,111,13.16,25.00,227.7
"2010-08-04 00:19:30",40660,1.687,260.1,1.594,0.057,21.95,109.7209,24.18,25.02,31.37,0,111,13.16,25.01,222.1
"2010-08-04 00:20:00",40661,1.582,260.5,3.742,0.096,21.97,109.7218,24.18,25.02,31.48,0,111,13.16,25.02,222.5
"2010-08-04 00:20:30",40662,1.663,255.7,2.219,0.053,21.98,109.7181,24.17,25.03,31.33,0,111,13.16,25.01,217.7
"2010-08-04 00:21:00",40663,1.741,261,2.405,0.066,21.97,109.7181,24.17,25.04,31.36,0,111,13.16,25.01,223.0
"2010-08-04 00:21:30",40664,1.732,258.5,3.596,0.101,21.96,109.7184,24.17,25.04,31.24,0,111,13.16,25.01,220.5
"2010-08-04 00:22:00",40665,1.768,250.3,2.589,0.17,21.93,109.7171,24.17,25.04,30.67,0,111,13.16,25.00,212.3
"2010-08-04 00:22:30",40666,1.566,256.1,2.341,0.026,21.9,109.7137,24.16,25.04,30.55,0,111,13.16,25.00,218.1
"2010-08-04 00:23:00",40667,1.559,252.3,2.489,0.085,21.86,109.7279,24.2,25.06,29.91,0,111,13.16,25.03,214.3
"2010-08-04 00:23:30",40668,1.684,247.9,2.459,0.108,21.82,109.7438,24.24,25.07,30.11,0,111,13.15,25.07,209.9
"2010-08-04 00:24:00",40669,1.624,244.6,2.137,0.051,21.81,109.7475,24.25,25.09,30.33,0,111,13.16,25.08,206.6
"2010-08-04 00:24:30",40670,1.604,244.3,1.89,0.064,21.73,109.745,24.24,25.09,30.04,0,111,13.15,25.08,206.3
"2010-08-04 00:25:00",40671,1.543,245.2,1.822,0.052,21.62,109.7474,24.25,25.1,29.94,0,111,13.15,25.08,207.2
"2010-08-04 00:25:30",40672,1.582,247,1.065,0.06,21.52,109.7518,24.26,25.12,30.02,0,111,13.15,25.09,209.0
"2010-08-04 00:26:00",40673,1.5,246.5,2.154,0.054,21.37,109.7624,24.28,25.14,29.94,0,111,13.15,25.12,208.5
"2010-08-04 00:26:30",40674,1.449,241.7,1.417,0.068,21.31,109.7761,24.32,25.13,30.33,0,111,13.15,25.16,203.7
"2010-08-04 00:27:00",40675,1.532,238.7,2.365,0.033,21.32,109.7775,24.32,25.16,31.03,0,111,13.15,25.16,200.7
"2010-08-04 00:27:30",40676,1.569,237.4,3.608,0.05,21.24,109.7775,24.32,25.16,31.11,0,111,13.16,25.16,199.4
"2010-08-04 00:28:00",40677,1.58,244.1,1.664,0.042,21.12,109.78,24.33,25.17,29.69,0,111,13.16,25.17,206.1
"2010-08-04 00:28:30",40678,1.71,243.4,1.64,0.034,21.16,109.7918,24.36,25.19,30.14,0,111,13.16,25.20,205.4
"2010-08-04 00:29:00",40679,1.801,242.1,1.605,0.126,21.04,109.8095,24.41,25.2,30.18,0,111.1,13.16,25.24,204.1
"2010-08-04 00:29:30",40680,2.108,244.6,1.892,0.036,20.95,109.8112,24.41,25.21,28.98,0,111.1,13.16,25.25,206.6
"2010-08-04 00:30:00",40681,2.067,245.9,2.191,0.081,20.98,109.8112,24.41,25.23,29.08,0,111.1,13.16,25.25,207.9
"2010-08-04 00:30:30",40682,2.071,249.9,3.252,0.058,21.01,109.8235,24.44,25.24,29.78,0,111.1,13.16,25.28,211.9
"2010-08-04 00:31:00",40683,1.999,248.9,1.429,0.089,21.04,109.8354,24.47,25.24,29.06,0,111.1,13.15,25.31,210.9
"2010-08-04 00:31:30",40684,1.804,250.4,1.356,0.052,20.86,109.8353,24.47,25.26,28.55,0,111.1,13.15,25.31,212.4
"2010-08-04 00:32:00",40685,1.748,250.2,1.938,0.042,20.81,109.8282,24.45,25.27,28.88,0,111.1,13.15,25.29,212.2
"2010-08-04 00:32:30",40686,1.543,252,1.668,0.088,20.76,109.8165,24.42,25.29,29.18,0,111.1,13.15,25.26,214.0
"2010-08-04 00:33:00",40687,1.135,246.6,6.136,0.046,20.81,109.8147,24.42,25.3,30.56,0,111.1,13.15,25.26,208.6
"2010-08-04 00:33:30",40688,1.342,227.8,3.423,0.088,20.75,109.8113,24.41,25.32,31,0,111.1,13.15,25.25,189.8
"2010-08-04 00:34:00",40689,1.366,236,7.387,0.121,20.71,109.8129,24.41,25.3,30.32,0,111.1,13.15,25.25,198.0
"2010-08-04 00:34:30",40690,1.4,238.4,5.929,0.089,20.68,109.8309,24.46,25.3,29.29,0,111.1,13.15,25.30,200.4
"2010-08-04 00:35:00",40691,1.129,233.9,4.008,0.069,20.77,109.8402,24.48,25.32,29.86,0,111.1,13.15,25.32,195.9
"2010-08-04 00:35:30",40692,1.383,232,5.223,0.106,20.76,109.8416,24.49,25.32,30.4,0,111.1,13.15,25.32,194.0
"2010-08-04 00:36:00",40693,1.324,233.7,3.993,0.091,20.88,109.8391,24.48,25.32,30.45,0,111.1,13.15,25.32,195.7
"2010-08-04 00:36:30",40694,1.507,232.1,3.609,0.131,20.78,109.833,24.47,25.33,30.77,0,111.1,13.15,25.30,194.1
"2010-08-04 00:37:00",40695,1.744,229.3,4.988,0.171,20.79,109.8323,24.46,25.32,30.85,0,111.1,13.15,25.30,191.3
"2010-08-04 00:37:30",40696,1.279,236.9,6.524,0.112,20.84,109.8234,24.44,25.34,29.88,0,111.1,13.14,25.28,198.9
"2010-08-04 00:38:00",40697,1.493,240.2,1.144,0.051,20.87,109.825,24.44,25.32,29.2,0,111.1,13.14,25.28,202.2
"2010-08-04 00:38:30",40698,1.497,241,0.787,0.032,20.86,109.836,24.47,25.33,27.94,0,111.1,13.14,25.31,203.0
"2010-08-04 00:39:00",40699,1.592,238.6,1.044,0.066,20.76,109.8383,24.48,25.35,28.09,0,111.2,13.14,25.32,200.6
"2010-08-04 00:39:30",40700,1.951,246.6,2.331,0.094,20.39,109.8293,24.46,25.35,30.22,0,111.2,13.13,25.29,208.6
"2010-08-04 00:40:00",40701,2.12,256.9,3.515,0.104,20.42,109.7869,24.35,25.3,31.3,0,111.2,13.13,25.18,218.9
"2010-08-04 00:40:30",40702,2.02,254.4,1.96,0.087,20.47,109.7507,24.25,25.25,31.73,0,111.2,13.13,25.09,216.4
"2010-08-04 00:41:00",40703,1.979,259.2,2.186,0.121,20.5,109.7174,24.17,25.17,31.75,0,111.2,13.13,25.00,221.2
"2010-08-04 00:41:30",40704,2.212,258.4,2.135,0.067,20.52,109.6974,24.12,25.1,31.73,0,111.2,13.13,24.95,220.4
"2010-08-04 00:42:00",40705,2.072,259.3,1.441,0.069,20.57,109.6642,24.03,25.06,32.02,0,111.2,13.13,24.87,221.3
"2010-08-04 00:42:30",40706,1.865,264.2,1.577,0.063,20.57,109.6584,24.02,25.01,31.94,0,111.2,13.13,24.85,226.2
"2010-08-04 00:43:00",40707,1.971,268.1,1.623,0.106,20.63,109.6476,23.99,24.97,32.23,0,111.2,13.13,24.82,230.1
"2010-08-04 00:43:30",40708,2.177,268.2,5.81,0.112,20.43,109.63,23.94,24.96,33,0,111.2,13.13,24.78,230.2
"2010-08-04 00:44:00",40709,2.131,281.2,5.261,0.161,20.47,109.599,23.86,24.91,33.21,0,111.2,13.13,24.70,243.2
"2010-08-04 00:44:30",40710,2.187,284.2,2.588,0.108,20.47,109.5703,23.79,24.86,33.7,0,111.2,13.13,24.63,246.2
"2010-08-04 00:45:00",40711,2.027,280.1,3.089,0.113,20.63,109.5655,23.78,24.8,33.26,0,111.2,13.13,24.61,242.1
"2010-08-04 00:45:30",40712,1.97,266.3,2.389,0.104,20.8,109.5683,23.79,24.78,32.41,0,111.2,13.13,24.62,228.3
"2010-08-04 00:46:00",40713,1.587,254.8,5.805,0.119,21.06,109.6023,23.87,24.79,30.64,0,111.2,13.13,24.71,216.8
"2010-08-04 00:46:30",40714,1.666,260.1,6.394,0.156,20.93,109.6376,23.96,24.82,30.73,0,111.2,13.13,24.80,222.1
"2010-08-04 00:47:00",40715,2.056,269.7,4.955,0.306,20.79,109.6663,24.04,24.84,31.5,0,111.3,13.13,24.87,231.7
"2010-08-04 00:47:30",40716,2.629,273.7,1.141,0.132,20.62,109.6663,24.04,24.85,32.66,0,111.2,13.13,24.87,235.7
"2010-08-04 00:48:00",40717,3.03,274.3,1.043,0.149,20.67,109.6399,23.97,24.83,32.99,0,111.3,13.13,24.80,236.3
"2010-08-04 00:48:30",40718,3.388,268.6,3.827,0.13,20.69,109.632,23.95,24.83,33.82,0,111.3,13.13,24.78,230.6
"2010-08-04 00:49:00",40719,3.38,268,3.38,0.245,20.67,109.6012,23.87,24.8,34.67,0,111.3,13.13,24.71,230.0
"2010-08-04 00:49:30",40720,3.125,271.7,4.668,0.14,20.67,109.5842,23.83,24.76,33.94,0,111.3,13.13,24.66,233.7
"2010-08-04 00:50:00",40721,2.723,269.9,3.871,0.22,20.71,109.5603,23.77,24.72,35.05,0,111.3,13.13,24.60,231.9
"2010-08-04 00:50:30",40722,3.397,271.8,2.238,0.173,20.75,109.5563,23.75,24.69,33.91,0,111.3,13.13,24.59,233.8
"2010-08-04 00:51:00",40723,3.247,271.6,2.073,0.213,20.85,109.5557,23.75,24.68,33.81,0,111.3,13.13,24.59,233.6
"2010-08-04 00:51:30",40724,2.748,271.7,2.601,0.063,20.86,109.5532,23.75,24.66,34.46,0,111.3,13.13,24.58,233.7
"2010-08-04 00:52:00",40725,3.028,277,3.475,0.076,20.85,109.548,23.73,24.65,35.13,0,111.3,13.13,24.57,239.0
"2010-08-04 00:52:30",40726,2.852,270.7,1.725,0.187,20.89,109.5407,23.71,24.64,35.26,0,111.3,13.13,24.55,232.7
"2010-08-04 00:53:00",40727,3.124,269,3.81,0.133,20.85,109.5186,23.66,24.63,36.83,0,111.3,13.13,24.49,231.0
"2010-08-04 00:53:30",40728,2.893,261.2,11.36,0.168,20.81,109.4983,23.61,24.61,37.18,0,111.3,13.13,24.44,223.2
"2010-08-04 00:54:00",40729,2.338,247.1,6.355,0.235,20.88,109.4965,23.6,24.58,37.11,0,111.3,13.13,24.44,209.1
"2010-08-04 00:54:30",40730,2.2,258,8.43,0.313,21.27,109.4956,23.6,24.57,34.42,0,111.3,13.12,24.43,220.0
"2010-08-04 00:55:00",40731,1.607,257.5,8.29,0.214,21.58,109.5239,23.67,24.58,32.67,0,111.3,13.11,24.51,219.5
"2010-08-04 00:55:30",40732,2.369,248,7.407,0.266,21.6,109.56,23.76,24.62,32.83,0,111.3,13.11,24.60,210.0
"2010-08-04 00:56:00",40733,2.885,251.5,5.853,0.375,21.42,109.569,23.79,24.66,34.37,0,111.3,13.11,24.62,213.5
"2010-08-04 00:56:30",40734,3.242,247.5,1.873,0.17,21.57,109.5626,23.77,24.66,34.38,0,111.3,13.11,24.61,209.5
"2010-08-04 00:57:00",40735,3.663,244,3.69,0.289,21.62,109.562,23.77,24.65,34.54,0,111.3,13.11,24.60,206.0
"2010-08-04 00:57:30",40736,3.62,239.8,2.921,0.263,21.54,109.5441,23.72,24.64,34.69,0,111.3,13.11,24.56,201.8
"2010-08-04 00:58:00",40737,3.879,240.2,4.984,0.394,21.55,109.53,23.69,24.62,34.64,0,111.3,13.11,24.52,202.2
"2010-08-04 00:58:30",40738,4.173,240.9,3.035,0.158,21.65,109.5286,23.68,24.61,34.22,0,111.3,13.11,24.52,202.9
"2010-08-04 00:59:00",40739,4.132,239.5,4.716,0.147,21.7,109.5247,23.67,24.6,34.1,0,111.3,13.11,24.51,201.5
"2010-08-04 00:59:30",40740,3.91,239,3.484,0.093,21.79,109.5253,23.68,24.59,34,0,111.3,13.11,24.51,201.0
"2010-08-04 01:00:00",40741,3.86,237.6,2.813,0.126,21.86,109.529,23.68,24.59,33.98,0,111.3,13.11,24.52,199.6
"2010-08-04 01:00:30",40742,3.914,243.3,4.611,0.314,21.81,109.5326,23.69,24.58,34.07,0,111.3,13.11,24.53,205.3
"2010-08-04 01:01:00",40743,3.826,245.3,4.106,0.174,21.84,109.5369,23.7,24.61,33.88,0,111.3,13.12,24.54,207.3
"2010-08-04 01:01:30",40744,3.772,241.2,2.66,0.175,21.89,109.5427,23.72,24.59,33.66,0,111.3,13.12,24.55,203.2
"2010-08-04 01:02:00",40745,3.999,243.9,1.973,0.197,21.92,109.5521,23.74,24.62,33.75,0,111.3,13.12,24.58,205.9
"2010-08-04 01:02:30",40746,4.087,243.4,1.407,0.166,21.98,109.5607,23.77,24.61,32.63,0,111.3,13.12,24.60,205.4
"2010-08-04 01:03:00",40747,4.339,244.8,2.004,0.17,21.94,109.586,23.83,24.64,32.76,0,111.3,13.12,24.67,206.8
"2010-08-04 01:03:30",40748,4.141,248,3.477,0.118,21.97,109.5891,23.84,24.64,32.69,0,111.3,13.12,24.67,210.0
"2010-08-04 01:04:00",40749,3.583,251.2,3.042,0.421,21.89,109.5897,23.84,24.65,33.31,0,111.3,13.12,24.68,213.2
"2010-08-04 01:04:30",40750,3.641,248,1.257,0.161,21.85,109.5852,23.83,24.67,32.59,0,111.3,13.12,24.66,210.0
"2010-08-04 01:05:00",40751,3.816,249,2.249,0.335,21.9,109.5859,23.83,24.65,33.13,0,111.3,13.12,24.67,211.0
"2010-08-04 01:05:30",40752,3.841,252.2,3.037,0.204,21.89,109.574,23.8,24.67,33.38,0,111.3,13.12,24.64,214.2
"2010-08-04 01:06:00",40753,3.629,247.7,2.938,0.092,22,109.5765,23.81,24.67,32.97,0,111.3,13.12,24.64,209.7
"2010-08-04 01:06:30",40754,3.337,247.9,3.804,0.12,21.89,109.5758,23.8,24.67,33.55,0,111.3,13.12,24.64,209.9
"2010-08-04 01:07:00",40755,3.185,252.3,3.798,0.122,22.03,109.5739,23.8,24.66,32.89,0,111.3,13.12,24.63,214.3
"2010-08-04 01:07:30",40756,3.098,250.2,5.328,0.197,22.23,109.5978,23.86,24.67,31.18,0,111.3,13.12,24.70,212.2
"2010-08-04 01:08:00",40757,3.187,260.3,7.067,0.172,21.95,109.6214,23.92,24.71,32.99,0,111.2,13.12,24.76,222.3
"2010-08-04 01:08:30",40758,2.738,259.7,2.095,0.191,21.84,109.6009,23.87,24.71,34.2,0,111.2,13.12,24.70,221.7
"2010-08-04 01:09:00",40759,3.071,262.1,2.551,0.097,22.11,109.5964,23.86,24.7,32.42,0,111.2,13.12,24.69,224.1
"2010-08-04 01:09:30",40760,3.152,263.7,1.979,0.194,22.14,109.6051,23.88,24.72,31.7,0,111.2,13.12,24.72,225.7
"2010-08-04 01:10:00",40761,3.098,263.5,2.449,0.086,22.15,109.6225,23.92,24.72,31.62,0,111.2,13.12,24.76,225.5
"2010-08-04 01:10:30",40762,2.836,263.4,2.75,0.161,22.13,109.6329,23.95,24.76,31.73,0,111.2,13.12,24.79,225.4
"2010-08-04 01:11:00",40763,2.781,266.2,4.561,0.154,22.04,109.6329,23.95,24.77,32.62,0,111.2,13.13,24.79,228.2
"2010-08-04 01:11:30",40764,2.818,261.8,5.385,0.189,21.96,109.6289,23.94,24.77,33.02,0,111.2,13.12,24.78,223.8
"2010-08-04 01:12:00",40765,3.275,259.6,3.912,0.134,22.03,109.6084,23.89,24.76,32.49,0,111.2,13.12,24.72,221.6
"2010-08-04 01:12:30",40766,3.435,258.8,1.63,0.062,22.09,109.6202,23.92,24.77,31.56,0,111.2,13.12,24.75,220.8
"2010-08-04 01:13:00",40767,3.348,260.1,0.967,0.06,21.99,109.6141,23.9,24.77,32.42,0,111.2,13.12,24.74,222.1
"2010-08-04 01:13:30",40768,3.208,258.7,2.559,0.087,21.99,109.6049,23.88,24.77,32.7,0,111.2,13.12,24.71,220.7
"2010-08-04 01:14:00",40769,3.038,254.7,2.182,0.061,21.99,109.6004,23.87,24.76,32.72,0,111.2,13.12,24.70,216.7
"2010-08-04 01:14:30",40770,2.906,255.3,1.991,0.083,21.95,109.5985,23.86,24.74,33.26,0,111.2,13.12,24.70,217.3
"2010-08-04 01:15:00",40771,2.903,256.7,1.576,0.12,22.01,109.5791,23.81,24.73,33.49,0,111.2,13.12,24.65,218.7
"2010-08-04 01:15:30",40772,2.709,259,2.347,0.167,21.97,109.5753,23.8,24.73,33.53,0,111.2,13.12,24.64,221.0
"2010-08-04 01:16:00",40773,2.534,265.8,4.22,0.227,21.94,109.5781,23.81,24.71,33.93,0,111.2,13.12,24.65,227.8
"2010-08-04 01:16:30",40774,2.149,268.4,3.836,0.07,21.87,109.5687,23.79,24.69,34.88,0,111.2,13.12,24.62,230.4
"2010-08-04 01:17:00",40775,2.181,264.9,2.654,0.074,21.87,109.5579,23.76,24.67,35.1,0,111.2,13.12,24.59,226.9
"2010-08-04 01:17:30",40776,2.318,265.6,2.141,0.087,21.95,109.5549,23.75,24.64,34.72,0,111.2,13.13,24.59,227.6
"2010-08-04 01:18:00",40777,2.559,260.2,2.956,0.145,21.88,109.5373,23.71,24.62,35.38,0,111.2,13.13,24.54,222.2
"2010-08-04 01:18:30",40778,2.919,266,4.012,0.153,21.9,109.5264,23.68,24.59,35.37,0,111.2,13.13,24.51,228.0
"2010-08-04 01:19:00",40779,2.905,265.4,4.12,0.148,21.93,109.5267,23.68,24.57,35.57,0,111.2,13.13,24.51,227.4
"2010-08-04 01:19:30",40780,2.556,258,2.692,0.101,21.97,109.5275,23.68,24.56,35.73,0,111.2,13.13,24.52,220.0
"2010-08-04 01:20:00",40781,2.709,258.6,2.972,0.114,21.98,109.5212,23.66,24.55,35.41,0,111.2,13.13,24.50,220.6
"2010-08-04 01:20:30",40782,2.628,264.5,1.478,0.119,22.11,109.5272,23.68,24.54,34.71,0,111.2,13.13,24.51,226.5
"2010-08-04 01:21:00",40783,2.742,268.1,3.08,0.103,22.22,109.539,23.71,24.55,33.19,0,111.1,13.13,24.54,230.1
"2010-08-04 01:21:30",40784,2.84,267.2,1.656,0.075,22.22,109.5662,23.78,24.6,32.4,0,111.1,13.13,24.62,229.2
"2010-08-04 01:22:00",40785,2.702,267.4,3.631,0.124,22.22,109.5729,23.8,24.61,32.35,0,111.1,13.13,24.63,229.4
"2010-08-04 01:22:30",40786,2.817,277.3,1.339,0.055,22.27,109.5971,23.86,24.64,31.36,0,111.1,13.14,24.69,239.3
"2010-08-04 01:23:00",40787,2.617,280.2,2.403,0.075,22.3,109.6094,23.89,24.67,31.21,0,111.1,13.14,24.73,242.2
"2010-08-04 01:23:30",40788,2.495,282.9,1.047,0.037,22.26,109.633,23.95,24.72,31.16,0,111.1,13.14,24.79,244.9
"2010-08-04 01:24:00",40789,2.535,285.9,1.177,0.06,22.24,109.6361,23.96,24.74,31.26,0,111.1,13.14,24.80,247.9
"2010-08-04 01:24:30",40790,2.53,285.9,0.941,0.099,22.21,109.6392,23.97,24.77,31.28,0,111.1,13.14,24.80,247.9
"2010-08-04 01:25:00",40791,2.74,288.1,1.089,0.089,22.26,109.6457,23.98,24.79,30.94,0,111.1,13.14,24.82,250.1
"2010-08-04 01:25:30",40792,2.803,290.3,1.629,0.066,22.17,109.6524,24,24.81,31.06,0,111.1,13.14,24.84,252.3
"2010-08-04 01:26:00",40793,2.576,291,2.03,0.099,22.16,109.6482,23.99,24.84,31.1,0,111.1,13.14,24.83,253.0
"2010-08-04 01:26:30",40794,2.53,290.8,1.768,0.057,22.07,109.64,23.97,24.82,31.29,0,111.1,13.14,24.81,252.8
"2010-08-04 01:27:00",40795,2.659,295.8,1.1,0.076,22.18,109.6367,23.96,24.83,31.35,0,111.1,13.14,24.80,257.8
"2010-08-04 01:27:30",40796,2.757,299.9,1.02,0.036,22.25,109.6423,23.98,24.85,31.03,0,111.1,13.14,24.81,261.9
"2010-08-04 01:28:00",40797,2.813,298.8,1.021,0.029,22.2,109.6506,24,24.86,31.14,0,111.1,13.14,24.83,260.8
"2010-08-04 01:28:30",40798,2.831,300.4,0.546,0.025,22.14,109.6546,24.01,24.85,31.25,0,111.1,13.14,24.84,262.4
"2010-08-04 01:29:00",40799,2.93,301.7,0.608,0.052,22.18,109.6595,24.02,24.85,31.05,0,111.1,13.14,24.86,263.7
"2010-08-04 01:29:30",40800,3.118,301.2,0.617,0.061,22.14,109.6635,24.03,24.85,31.12,0,111.1,13.14,24.87,263.2
"2010-08-04 01:30:00",40801,3.302,300.8,1.027,0.085,22.15,109.6576,24.01,24.85,30.7,0,111.1,13.14,24.85,262.8
"2010-08-04 01:30:30",40802,3.282,302.3,0.852,0.067,22.19,109.6489,23.99,24.86,30.76,0,111.1,13.14,24.83,264.3
"2010-08-04 01:31:00",40803,3.233,303.7,1.202,0.05,22.17,109.6477,23.99,24.85,30.89,0,111.1,13.14,24.83,265.7
"2010-08-04 01:31:30",40804,3.495,303.3,1.048,0.131,22.1,109.648,23.99,24.85,30.57,0,111.1,13.14,24.83,265.3
"2010-08-04 01:32:00",40805,3.66,301.6,0.665,0.062,22.11,109.6428,23.98,24.85,30.39,0,111.1,13.14,24.81,263.6
"2010-08-04 01:32:30",40806,3.714,302.6,0.968,0.047,22.16,109.6447,23.98,24.86,30.3,0,111.1,13.14,24.82,264.6
"2010-08-04 01:33:00",40807,3.672,303.2,0.963,0.051,22.17,109.6474,23.99,24.85,30.39,0,111.1,13.14,24.82,265.2
"2010-08-04 01:33:30",40808,3.875,302.8,1.241,0.154,22.16,109.6486,23.99,24.86,30.29,0,111.1,13.14,24.83,264.8
"2010-08-04 01:34:00",40809,3.726,303.9,1.113,0.113,22.19,109.6495,23.99,24.86,30.32,0,111.1,13.14,24.83,265.9
"2010-08-04 01:34:30",40810,3.729,308.5,0.839,0.054,22.22,109.652,24,24.87,30.46,0,111.1,13.14,24.84,270.5
"2010-08-04 01:35:00",40811,3.782,310.3,0.714,0.048,22.24,109.6587,24.02,24.86,30.47,0,111.1,13.15,24.85,272.3
"2010-08-04 01:35:30",40812,3.875,310.7,0.901,0.061,22.27,109.6708,24.05,24.88,30.48,0,111.1,13.15,24.88,272.7
"2010-08-04 01:36:00",40813,4.116,309.3,0.668,0.119,22.28,109.6725,24.05,24.89,30.49,0,111.1,13.15,24.89,271.3
"2010-08-04 01:36:30",40814,4.205,309.8,0.512,0.067,22.31,109.6731,24.05,24.89,30.56,0,111.1,13.15,24.89,271.8
"2010-08-04 01:37:00",40815,4.224,310,0.753,0.064,22.34,109.6756,24.06,24.92,30.5,0,111.1,13.15,24.90,272.0
"2010-08-04 01:37:30",40816,4.141,311.5,0.551,0.037,22.31,109.6812,24.08,24.94,30.53,0,111.1,13.15,24.91,273.5
"2010-08-04 01:38:00",40817,4.156,312.1,0.505,0.03,22.31,109.6823,24.08,24.94,30.51,0,111.1,13.15,24.91,274.1
"2010-08-04 01:38:30",40818,4.329,312.8,0.512,0.089,22.34,109.6852,24.09,24.95,30.43,0,111.1,13.15,24.92,274.8
"2010-08-04 01:39:00",40819,4.421,314.1,0.493,0.064,22.28,109.6868,24.09,24.97,30.43,0,111.1,13.15,24.93,276.1
"2010-08-04 01:39:30",40820,4.618,314.6,0.284,0.057,22.35,109.6933,24.11,24.97,30.42,0,111.1,13.15,24.94,276.6
"2010-08-04 01:40:00",40821,4.767,314.9,0.326,0.042,22.38,109.7048,24.14,24.98,30.5,0,111.1,13.15,24.97,276.9
"2010-08-04 01:40:30",40822,4.734,315.2,0.399,0.035,22.33,109.7068,24.14,24.99,30.46,0,111.1,13.15,24.98,277.2
"2010-08-04 01:41:00",40823,4.717,316.5,1.152,0.036,22.3,109.7068,24.14,25,30.48,0,111.1,13.15,24.98,278.5
"2010-08-04 01:41:30",40824,4.891,319.4,1.067,0.089,22.34,109.7074,24.14,25.01,30.52,0,111.1,13.15,24.98,281.4
"2010-08-04 01:42:00",40825,5.123,320.3,0.621,0.066,22.32,109.7098,24.15,25.02,30.41,0,111.1,13.15,24.99,282.3
"2010-08-04 01:42:30",40826,5.44,321.8,0.334,0.057,22.36,109.7105,24.15,25.04,30.26,0,111.1,13.15,24.99,283.8
"2010-08-04 01:43:00",40827,5.678,321.7,0.688,0.069,22.4,109.7224,24.18,25.02,29.75,0,111.1,13.15,25.02,283.7
"2010-08-04 01:43:30",40828,5.717,322.2,0.789,0.055,22.38,109.7389,24.22,25.05,29.65,0,111.1,13.15,25.06,284.2
"2010-08-04 01:44:00",40829,5.937,323.8,0.599,0.154,22.35,109.7544,24.26,25.08,29.99,0,111.1,13.15,25.10,285.8
"2010-08-04 01:44:30",40830,6.176,323,1.073,0.139,22.36,109.7549,24.26,25.08,30.06,0,111.1,13.15,25.10,285.0
"2010-08-04 01:45:00",40831,6.54,323.6,1.168,0.128,22.35,109.7468,24.24,25.08,29.89,0,111.1,13.15,25.08,285.6
"2010-08-04 01:45:30",40832,6.791,324.6,1.197,0.078,22.32,109.7458,24.24,25.08,29.94,0,111,13.15,25.08,286.6
"2010-08-04 01:46:00",40833,7.107,324.5,0.668,0.088,22.36,109.7429,24.23,25.09,30,0,111.1,13.15,25.07,286.5
"2010-08-04 01:46:30",40834,7.454,325.1,0.437,0.199,22.36,109.7416,24.23,25.08,29.99,0,111,13.15,25.07,287.1
"2010-08-04 01:47:00",40835,7.93,324.3,1.263,0.067,22.37,109.7413,24.23,25.09,30.14,0,111,13.15,25.07,286.3
"2010-08-04 01:47:30",40836,8.63,320.6,1.121,0.356,22.26,109.7372,24.22,25.1,30.35,0,111,13.15,25.06,282.6
"2010-08-04 01:48:00",40837,10.92,317.1,4.54,0.871,21.3,109.7198,24.17,25.06,33.85,0,111,13.15,25.01,279.1
"2010-08-04 01:48:30",40838,14.37,329.9,5.02,0.628,21,109.6644,24.03,25.02,35.09,0,111,13.15,24.87,291.9
"2010-08-04 01:49:00",40839,13.55,335.5,4.25,0.89,20.95,109.5982,23.86,24.92,35.87,0,111,13.15,24.70,297.5